Lansing, MI

12:04 AM EDT on March 27, 2017 (GMT -0400)
Capital City

Weather History for KLAN - May, 2013

Change the Weather History Date:

Thursday, May 23, 2013

  Actual Average Record
Temperature  
Mean Temperature 51 °F 60 °F  
Max Temperature 61 °F 71 °F 91 °F (1977)
Min Temperature 41 °F 49 °F 26 °F (1866)
Degree Days  
Heating Degree Days 14 7  
Month to date heating degree days 116 216  
Since 1 July heating degree days 6457 6614  
Cooling Degree Days 0 2  
Month to date cooling degree days 47 18  
Year to date cooling degree days 47 25  
Growing Degree Days 2 (Base 50)    
Moisture  
Dew Point 49 °F    
Average Humidity 85    
Maximum Humidity 93    
Minimum Humidity 76    
Precipitation  
Precipitation 0.21 in 0.12 in 2.14 in (1952)
Month to date precipitation 1.14 2.45  
Year to date precipitation 15.19 10.66  
Snow  
Snow 0.00 in 0.00 in T in (1917)
Month to date snowfall 0.0 0.0  
Since 1 July snowfall 30.2 51.1  
Snow Depth 0.00 in    
Sea Level Pressure  
Sea Level Pressure 29.92 in    
Wind  
Wind Speed 10 mph (North)    
Max Wind Speed 21 mph    
Max Gust Speed 26 mph    
Visibility 6 miles    
Events Rain    
T = Trace of Precipitation, MM = Missing Value Source: NWS Daily Summary

Daily Weather History Graph

Daily Weather History Graph

Search for Another Location

Airport or City:

Trip Planner

Search our weather history database for the weather conditions in past years. The results will help you decide how hot, cold, wet, or windy it might be!

Date:

Astronomy

May. 23, 2013 Rise Set
Actual Time 6:08 AM EDT 9:02 PM EDT
Civil Twilight 5:34 AM EDT 9:36 PM EDT
Nautical Twilight 4:52 AM EDT 10:18 PM EDT
Astronomical Twilight 4:03 AM EDT 11:08 PM EDT
Moon 7:32 PM EDT (5/23) 4:55 AM EDT (5/23)
Length of Visible Light 16h 01m
Length of Day
14h 54m
Waxing Gibbous, 97% of the Moon is Illuminated
May 23
Waxing Gibbous
May 25
Full
May 31
Last Quarter
Jun 8
New
Jun 16
First Quarter

Hourly Weather History & Observations

Time (EDT) Temp. Windchill Dew Point Humidity Pressure Visibility Wind Dir Wind Speed Gust Speed Precip Events Conditions
12:11 AM 60.8 °F - 57.2 °F 88% 29.71 in 10.0 mi SW 11.5 mph - N/A   Mostly Cloudy
12:53 AM 60.1 °F - 57.9 °F 93% 29.71 in 10.0 mi WSW 9.2 mph - N/A   Mostly Cloudy
1:53 AM 60.1 °F - 57.0 °F 90% 29.71 in 8.0 mi WSW 10.4 mph - N/A   Mostly Cloudy
2:53 AM 60.1 °F - 57.0 °F 90% 29.71 in 6.0 mi West 5.8 mph - N/A   Mostly Cloudy
3:23 AM 59.0 °F - 57.2 °F 94% 29.72 in 5.0 mi West 3.5 mph - N/A   Mostly Cloudy
3:42 AM 60.8 °F - 57.2 °F 88% 29.72 in 4.0 mi West 3.5 mph - N/A   Mostly Cloudy
3:53 AM 60.1 °F - 57.0 °F 90% 29.71 in 5.0 mi West 3.5 mph - N/A   Overcast
4:53 AM 60.1 °F - 57.0 °F 90% 29.72 in 5.0 mi WSW 5.8 mph - N/A   Overcast
5:53 AM 60.1 °F - 57.0 °F 90% 29.73 in 5.0 mi WSW 5.8 mph - N/A   Overcast
6:02 AM 60.8 °F - 57.2 °F 88% 29.74 in 5.0 mi SW 8.1 mph - N/A   Overcast
6:32 AM 60.8 °F - 55.4 °F 82% 29.74 in 6.0 mi WSW 8.1 mph - N/A   Overcast
6:53 AM 60.1 °F - 55.9 °F 86% 29.74 in 4.0 mi WSW 6.9 mph - N/A   Overcast
7:06 AM 60.8 °F - 55.4 °F 82% 29.75 in 5.0 mi WSW 4.6 mph - N/A   Overcast
7:32 AM 60.8 °F - 55.4 °F 82% 29.75 in 5.0 mi West 5.8 mph - N/A   Overcast
7:53 AM 60.1 °F - 55.9 °F 86% 29.75 in 5.0 mi West 6.9 mph - N/A   Overcast
8:34 AM 59.0 °F - 55.4 °F 88% 29.77 in 8.0 mi West 8.1 mph - N/A   Overcast
8:44 AM 60.8 °F - 55.4 °F 82% 29.78 in 9.0 mi West 6.9 mph - N/A   Overcast
8:53 AM 59.0 °F - 55.0 °F 87% 29.78 in 8.0 mi WNW 4.6 mph - N/A   Overcast
9:15 AM 57.2 °F - 55.4 °F 94% 29.79 in 1.8 mi NE 9.2 mph 18.4 mph 0.00 in Rain Light Rain
9:23 AM 55.4 °F - 53.6 °F 94% 29.80 in 1.0 mi NE 13.8 mph 19.6 mph 0.02 in Rain Light Rain
9:44 AM 55.4 °F - 53.6 °F 94% 29.81 in 1.5 mi NE 13.8 mph 19.6 mph 0.05 in Rain Light Rain
9:48 AM 55.4 °F - 53.6 °F 94% 29.81 in 2.0 mi NE 9.2 mph 18.4 mph 0.05 in Rain Light Rain
9:53 AM 55.0 °F - 53.1 °F 93% 29.81 in 2.5 mi NE 11.5 mph 18.4 mph 0.06 in Rain Light Rain
10:00 AM 55.4 °F - 51.8 °F 88% 29.82 in 4.0 mi NE 9.2 mph 19.6 mph 0.00 in Rain Light Rain
10:31 AM 51.8 °F - 48.2 °F 88% 29.84 in 4.0 mi NE 13.8 mph 23.0 mph 0.00 in Rain Light Rain
10:53 AM 52.0 °F - 48.9 °F 89% 29.85 in 5.0 mi NE 18.4 mph 25.3 mph 0.00 in Rain Light Rain
11:42 AM 50.0 °F - 46.4 °F 87% 29.87 in 5.0 mi NE 18.4 mph 24.2 mph 0.00 in   Overcast
11:53 AM 50.0 °F - 46.9 °F 89% 29.88 in 9.0 mi NNE 15.0 mph 21.9 mph 0.00 in   Overcast
12:15 PM 50.0 °F - 46.4 °F 87% 29.89 in 9.0 mi NE 16.1 mph 24.2 mph N/A   Overcast
12:53 PM 48.9 °F - 46.0 °F 90% 29.92 in 1.8 mi NE 12.7 mph - 0.02 in Rain Rain
1:07 PM 48.2 °F - 44.6 °F 87% 29.92 in 1.2 mi NNE 12.7 mph 20.7 mph 0.03 in Rain Rain
1:11 PM 48.2 °F - 46.4 °F 93% 29.92 in 1.2 mi NNE 10.4 mph - 0.04 in Rain Rain
1:18 PM 48.2 °F - 46.4 °F 93% 29.93 in 1.8 mi NNE 9.2 mph - 0.07 in Rain Rain
1:26 PM 48.2 °F - 46.4 °F 93% 29.93 in 2.5 mi North 16.1 mph 20.7 mph 0.07 in Rain Light Rain
1:35 PM 48.2 °F - 46.4 °F 93% 29.93 in 3.0 mi NNE 13.8 mph - 0.09 in Rain Light Rain
1:53 PM 48.9 °F - 46.0 °F 90% 29.95 in 5.0 mi NNE 17.3 mph 23.0 mph 0.11 in Rain Light Rain
2:08 PM 48.2 °F - 46.4 °F 93% 29.95 in 6.0 mi NNE 15.0 mph 20.7 mph 0.01 in Rain Light Rain
2:28 PM 48.2 °F - 44.6 °F 87% 29.96 in 10.0 mi NNE 15.0 mph 20.7 mph 0.02 in Rain Light Rain
2:38 PM 48.2 °F - 44.6 °F 87% 29.97 in 10.0 mi North 12.7 mph 20.7 mph 0.02 in Rain Light Rain
2:53 PM 48.9 °F - 45.0 °F 86% 29.98 in 10.0 mi North 12.7 mph 20.7 mph 0.02 in Rain Light Rain
3:12 PM 48.2 °F - 44.6 °F 87% 29.98 in 10.0 mi North 13.8 mph - 0.00 in Rain Light Rain
3:43 PM 48.2 °F - 44.6 °F 87% 29.99 in 10.0 mi NNE 16.1 mph 20.7 mph 0.00 in Rain Light Rain
3:53 PM 48.0 °F - 44.1 °F 86% 30.00 in 10.0 mi North 12.7 mph 21.9 mph 0.00 in Rain Light Rain
4:16 PM 48.2 °F - 44.6 °F 87% 30.01 in 10.0 mi NNE 12.7 mph 20.7 mph 0.00 in Rain Light Rain
4:29 PM 48.2 °F - 44.6 °F 87% 30.01 in 10.0 mi North 15.0 mph 20.7 mph 0.00 in Rain Light Rain
4:53 PM 48.9 °F - 44.1 °F 83% 30.02 in 10.0 mi North 9.2 mph - 0.00 in Rain Light Rain
5:05 PM 48.2 °F - 44.6 °F 87% 30.02 in 10.0 mi NNE 10.4 mph - 0.00 in Rain Light Rain
5:53 PM 48.9 °F - 45.0 °F 86% 30.05 in 10.0 mi NNE 11.5 mph - 0.00 in Rain Light Rain
6:00 PM 48.2 °F - 44.6 °F 87% 30.05 in 7.0 mi North 8.1 mph - 0.00 in   Overcast
6:32 PM 48.2 °F - 44.6 °F 87% 30.06 in 3.0 mi North 12.7 mph 19.6 mph 0.00 in Rain Light Rain
6:42 PM 48.2 °F - 44.6 °F 87% 30.07 in 2.0 mi North 11.5 mph 20.7 mph 0.00 in Rain Light Rain
6:53 PM 46.9 °F - 44.1 °F 90% 30.09 in 3.0 mi North 12.7 mph 20.7 mph 0.00 in Rain Light Rain
7:07 PM 46.4 °F 41.1 °F 42.8 °F 87% 30.08 in 10.0 mi North 11.5 mph - 0.00 in   Overcast
7:26 PM 46.4 °F 41.5 °F 42.8 °F 87% 30.09 in 10.0 mi North 10.4 mph - 0.00 in   Overcast
7:53 PM 46.9 °F - 43.0 °F 86% 30.12 in 10.0 mi North 9.2 mph - 0.00 in   Overcast
8:01 PM 46.4 °F 41.1 °F 42.8 °F 87% 30.11 in 7.0 mi NNW 11.5 mph - N/A   Overcast
8:39 PM 46.4 °F 41.9 °F 42.8 °F 87% 30.13 in 6.0 mi North 9.2 mph - N/A   Overcast
8:53 PM 46.0 °F 41.9 °F 43.0 °F 89% 30.14 in 2.5 mi North 8.1 mph - N/A   Overcast
9:01 PM 44.6 °F 39.7 °F 42.8 °F 93% 30.13 in 3.0 mi North 9.2 mph - 0.00 in   Overcast
9:19 PM 44.6 °F 40.2 °F 42.8 °F 93% 30.14 in 10.0 mi North 8.1 mph - 0.00 in   Overcast
9:53 PM 46.0 °F 42.5 °F 42.1 °F 86% 30.16 in 10.0 mi NNW 6.9 mph - 0.00 in   Overcast
10:29 PM 46.4 °F 42.9 °F 41.0 °F 81% 30.17 in 10.0 mi NW 6.9 mph - N/A   Overcast
10:53 PM 46.0 °F 41.9 °F 39.9 °F 79% 30.19 in 10.0 mi North 8.1 mph - N/A   Overcast
11:53 PM 44.1 °F 39.0 °F 37.0 °F 76% 30.20 in 10.0 mi NNW 9.2 mph - N/A   Clear